QPF
0.01 0.02 0.03 0.03 0.02 0.02 0.03 0.03 0.03 0.03 0.03 0.04 0.05 0.05 0.04 0.04 0.05 0.07 0.06 0.07 0.07 0.08 0.08 0.06 0.05 0.04 0.05 0.04 0.04 0.04 0.05 0.06 0.06 0.05 0.04 0.04 0.04 0.04 0.03 0.04 0.03 0.03 0.03
0.00 0.01 0.02 0.02 0.02 0.02 0.03 0.03 0.03 0.03 0.03 0.04 0.05 0.05 0.04 0.06 0.07 0.07 0.06 0.06 0.08 0.07 0.06 0.06 0.05 0.05 0.05 0.04 0.04 0.04 0.04 0.05 0.05 0.04 0.04 0.04 0.04 0.03 0.03 0.04 0.03 0.04 0.04
0.00 0.01 0.02 0.02 0.02 0.02 0.02 0.02 0.02 0.03 0.03 0.04 0.06 0.06 0.06 0.07 0.07 0.06 0.07 0.07 0.09 0.08 0.08 0.07 0.05 0.05 0.04 0.03 0.03 0.04 0.04 0.04 0.05 0.05 0.04 0.04 0.04 0.04 0.04 0.03 0.03 0.03 0.02
0.01 0.01 0.02 0.02 0.02 0.02 0.02 0.02 0.02 0.02 0.02 0.03 0.05 0.05 0.05 0.06 0.07 0.07 0.08 0.09 0.09 0.08 0.07 0.06 0.05 0.05 0.05 0.05 0.05 0.05 0.06 0.05 0.05 0.06 0.06 0.05 0.06 0.05 0.06 0.05 0.04 0.03 0.01
0.02 0.01 0.01 0.02 0.03 0.03 0.02 0.01 0.01 0.01 0.02 0.03 0.03 0.03 0.04 0.05 0.05 0.06 0.06 0.06 0.07 0.07 0.07 0.08 0.07 0.07 0.05 0.05 0.04 0.05 0.06 0.05 0.05 0.05 0.06 0.06 0.06 0.06 0.06 0.06 0.05 0.04 0.03
0.02 0.02 0.01 0.02 0.03 0.02 0.02 0.02 0.02 0.01 0.02 0.02 0.02 0.03 0.03 0.02 0.03 0.02 0.02 0.03 0.04 0.04 0.05 0.08 0.07 0.05 0.04 0.03 0.03 0.03 0.04 0.05 0.07 0.08 0.05 0.05 0.05 0.05 0.06 0.06 0.06 0.05 0.04
0.01 0.01 0.01 0.02 0.02 0.02 0.02 0.03 0.02 0.01 0.01 0.02 0.02 0.03 0.03 0.02 0.02 0.01 0.01 0.01 0.02 0.03 0.05 0.07 0.05 0.04 0.05 0.04 0.04 0.02 0.02 0.04 0.05 0.05 0.05 0.05 0.06 0.06 0.07 0.06 0.05 0.05 0.03
0.01 0.01 0.01 0.01 0.01 0.02 0.03 0.02 0.02 0.02 0.02 0.02 0.02 0.02 0.03 0.03 0.02 0.01 0.01 0.01 0.01 0.02 0.03 0.04 0.06 0.05 0.04 0.05 0.05 0.04 0.04 0.04 0.04 0.03 0.04 0.05 0.06 0.05 0.06 0.06 0.05 0.04 0.04
0.01 0.01 0.01 0.01 0.01 0.01 0.02 0.02 0.02 0.02 0.02 0.01 0.02 0.02 0.02 0.03 0.01 0.01 0.00 0.01 0.02 0.02 0.02 0.03 0.04 0.04 0.04 0.04 0.03 0.03 0.04 0.04 0.03 0.03 0.02 0.03 0.03 0.04 0.04 0.04 0.05 0.03 0.02
0.00 0.01 0.01 0.01 0.01 0.01 0.01 0.02 0.03 0.03 0.02 0.01 0.02 0.02 0.02 0.02 0.02 0.01 0.01 0.01 0.01 0.02 0.03 0.04 0.04 0.03 0.04 0.02 0.02 0.02 0.03 0.04 0.04 0.03 0.03 0.02 0.02 0.02 0.03 0.03 0.03 0.03 0.03
0.01 0.01 0.01 0.01 0.01 0.02 0.03 0.03 0.03 0.03 0.03 0.02 0.02 0.03 0.03 0.03 0.03 0.02 0.02 0.02 0.02 0.03 0.03 0.03 0.03 0.03 0.04 0.03 0.02 0.01 0.01 0.02 0.04 0.04 0.04 0.03 0.03 0.03 0.02 0.02 0.02 0.02 0.03
0.02 0.02 0.02 0.02 0.01 0.02 0.03 0.03 0.03 0.04 0.04 0.03 0.03 0.02 0.02 0.03 0.02 0.02 0.01 0.01 0.01 0.01 0.02 0.01 0.01 0.01 0.01 0.02 0.01 0.01 0.01 0.01 0.01 0.04 0.04 0.04 0.04 0.04 0.03 0.02 0.02 0.02 0.03
0.03 0.04 0.03 0.03 0.02 0.02 0.03 0.03 0.04 0.04 0.04 0.03 0.03 0.02 0.01 0.01 0.01 0.00 0.00 0.00 0.00 0.00 0.01 0.01 0.02 0.02 0.02 0.01 0.02 0.02 0.01 0.01 0.01 0.02 0.03 0.04 0.05 0.06 0.07 0.05 0.05 0.05 0.05
0.04 0.04 0.04 0.04 0.02 0.03 0.03 0.03 0.03 0.03 0.03 0.04 0.04 0.04 0.03 0.02 0.01 0.01 0.01 0.01 0.00 0.00 0.01 0.01 0.02 0.02 0.02 0.02 0.02 0.02 0.02 0.02 0.02 0.02 0.03 0.03 0.04 0.06 0.07 0.08 0.07 0.07 0.07
0.04 0.05 0.04 0.04 0.03 0.04 0.04 0.03 0.03 0.03 0.03 0.03 0.03 0.03 0.03 0.03 0.03 0.03 0.02 0.01 0.01 0.00 0.00 0.01 0.01 0.01 0.01 0.02 0.03 0.03 0.03 0.03 0.03 0.03 0.03 0.03 0.04 0.05 0.05 0.06 0.08 0.09 0.08
0.07 0.07 0.06 0.05 0.05 0.04 0.04 0.05 0.04 0.04 0.03 0.02 0.02 0.03 0.03 0.04 0.04 0.04 0.03 0.02 0.02 0.02 0.01 0.00 0.01 0.01 0.01 0.02 0.02 0.03 0.03 0.04 0.04 0.05 0.05 0.05 0.05 0.06 0.07 0.08 0.08 0.07 0.07
0.05 0.05 0.05 0.04 0.05 0.04 0.04 0.04 0.04 0.03 0.03 0.02 0.02 0.02 0.02 0.03 0.03 0.03 0.03 0.03 0.03 0.03 0.02 0.02 0.02 0.02 0.02 0.03 0.02 0.03 0.03 0.04 0.04 0.04 0.05 0.05 0.06 0.07 0.10 0.11 0.11 0.10 0.09
0.05 0.05 0.04 0.04 0.03 0.03 0.03 0.04 0.03 0.03 0.02 0.02 0.02 0.02 0.02 0.03 0.03 0.04 0.04 0.04 0.03 0.04 0.03 0.03 0.03 0.03 0.03 0.03 0.02 0.02 0.01 0.02 0.03 0.04 0.04 0.05 0.06 0.07 0.07 0.07 0.08 0.09 0.10
0.03 0.04 0.05 0.04 0.04 0.03 0.03 0.02 0.03 0.03 0.02 0.02 0.01 0.02 0.03 0.03 0.02 0.03 0.04 0.03 0.02 0.03 0.02 0.02 0.03 0.03 0.02 0.01 0.02 0.02 0.01 0.01 0.02 0.03 0.03 0.04 0.05 0.05 0.06 0.06 0.07 0.07 0.08
0.03 0.04 0.04 0.03 0.03 0.03 0.02 0.02 0.02 0.03 0.03 0.03 0.02 0.02 0.02 0.02 0.01 0.02 0.02 0.02 0.02 0.02 0.02 0.02 0.02 0.02 0.01 0.02 0.02 0.02 0.02 0.02 0.02 0.03 0.04 0.04 0.04 0.04 0.04 0.04 0.04 0.04 0.04
0.03 0.04 0.04 0.04 0.03 0.03 0.02 0.02 0.02 0.03 0.03 0.03 0.02 0.02 0.02 0.02 0.02 0.02 0.02 0.02 0.02 0.02 0.03 0.03 0.02 0.01 0.01 0.03 0.03 0.03 0.02 0.02 0.02 0.03 0.03 0.03 0.02 0.02 0.03 0.04 0.04 0.03 0.03
0.03 0.03 0.03 0.03 0.04 0.03 0.03 0.03 0.03 0.04 0.03 0.03 0.03 0.02 0.02 0.02 0.02 0.02 0.02 0.03 0.03 0.04 0.03 0.03 0.03 0.03 0.05 0.05 0.04 0.02 0.02 0.01 0.01 0.01 0.01 0.02 0.02 0.03 0.03 0.03 0.03 0.03 0.04
0.03 0.03 0.03 0.04 0.04 0.04 0.04 0.04 0.03 0.03 0.04 0.04 0.04 0.03 0.03 0.02 0.02 0.02 0.02 0.02 0.04 0.07 0.07 0.09 0.10 0.09 0.07 0.05 0.03 0.02 0.02 0.02 0.02 0.02 0.02 0.03 0.03 0.02 0.02 0.02 0.03 0.03 0.03
0.02 0.02 0.02 0.03 0.05 0.05 0.05 0.05 0.05 0.06 0.05 0.05 0.06 0.05 0.03 0.02 0.02 0.02 0.03 0.03 0.02 0.02 0.02 0.03 0.05 0.06 0.04 0.02 0.02 0.02 0.02 0.02 0.02 0.02 0.02 0.02 0.02 0.01 0.02 0.02 0.02 0.02 0.02
0.01 0.02 0.02 0.02 0.03 0.04 0.08 0.11 0.09 0.08 0.08 0.09 0.10 0.08 0.06 0.05 0.03 0.03 0.02 0.02 0.02 0.02 0.02 0.03 0.03 0.02 0.02 0.02 0.02 0.01 0.01 0.01 0.01 0.00 0.01 0.01 0.01 0.01 0.01 0.01 0.01 0.01 0.02
0.02 0.02 0.02 0.02 0.02 0.02 0.03 0.05 0.08 0.10 0.09 0.07 0.07 0.06 0.05 0.05 0.04 0.03 0.04 0.04 0.05 0.06 0.06 0.06 0.05 0.04 0.03 0.02 0.01 0.01 0.01 0.01 0.01 0.00 0.00 0.00 0.00 0.01 0.01 0.01 0.01 0.02 0.02
MSLP
1008.98 1009.64 1010.27 1010.81 1011.25 1011.56 1011.77 1011.91 1012.03 1012.16 1012.34 1012.59 1012.91 1013.27 1013.66 1014.03 1014.36 1014.63 1014.84 1014.98 1015.07 1015.12 1015.14 1015.14 1015.13 1015.10 1015.07 1015.03 1014.99 1014.98 1014.99 1015.05 1015.15 1015.28 1015.44 1015.60 1015.75 1015.85 1015.90 1015.90 1015.86 1015.79 1015.74
1008.74 1009.42 1010.07 1010.64 1011.10 1011.45 1011.69 1011.86 1012.01 1012.17 1012.38 1012.66 1013.01 1013.41 1013.84 1014.26 1014.65 1014.98 1015.23 1015.42 1015.54 1015.60 1015.62 1015.61 1015.58 1015.52 1015.46 1015.40 1015.35 1015.33 1015.35 1015.41 1015.51 1015.65 1015.80 1015.95 1016.07 1016.14 1016.16 1016.12 1016.03 1015.92 1015.81
1008.55 1009.27 1009.93 1010.52 1011.01 1011.38 1011.66 1011.88 1012.06 1012.27 1012.52 1012.83 1013.21 1013.64 1014.10 1014.56 1014.98 1015.34 1015.64 1015.85 1016.00 1016.08 1016.11 1016.10 1016.06 1016.00 1015.93 1015.86 1015.81 1015.79 1015.81 1015.86 1015.96 1016.09 1016.22 1016.35 1016.44 1016.48 1016.46 1016.37 1016.23 1016.06 1015.89
1008.42 1009.15 1009.83 1010.44 1010.95 1011.37 1011.70 1011.97 1012.22 1012.48 1012.78 1013.13 1013.54 1013.99 1014.47 1014.93 1015.36 1015.73 1016.03 1016.26 1016.42 1016.51 1016.56 1016.56 1016.53 1016.48 1016.42 1016.36 1016.32 1016.30 1016.31 1016.36 1016.44 1016.54 1016.66 1016.75 1016.81 1016.82 1016.76 1016.63 1016.44 1016.22 1015.99
1008.30 1009.05 1009.75 1010.39 1010.94 1011.40 1011.79 1012.13 1012.46 1012.79 1013.14 1013.54 1013.98 1014.44 1014.90 1015.35 1015.76 1016.11 1016.40 1016.62 1016.77 1016.87 1016.93 1016.95 1016.94 1016.92 1016.88 1016.84 1016.80 1016.78 1016.79 1016.82 1016.87 1016.95 1017.03 1017.09 1017.12 1017.10 1017.01 1016.86 1016.64 1016.39 1016.12
1008.18 1008.95 1009.67 1010.33 1010.92 1011.45 1011.91 1012.34 1012.75 1013.16 1013.58 1014.02 1014.47 1014.93 1015.37 1015.78 1016.14 1016.45 1016.69 1016.89 1017.03 1017.13 1017.20 1017.24 1017.26 1017.27 1017.26 1017.24 1017.21 1017.19 1017.18 1017.19 1017.22 1017.26 1017.30 1017.33 1017.33 1017.29 1017.20 1017.04 1016.82 1016.56 1016.27
1008.05 1008.84 1009.58 1010.27 1010.91 1011.49 1012.03 1012.55 1013.04 1013.53 1014.01 1014.49 1014.95 1015.39 1015.80 1016.15 1016.46 1016.71 1016.90 1017.06 1017.18 1017.28 1017.36 1017.42 1017.48 1017.51 1017.53 1017.53 1017.52 1017.50 1017.47 1017.45 1017.44 1017.45 1017.45 1017.45 1017.44 1017.39 1017.30 1017.16 1016.96 1016.72 1016.45
1007.93 1008.72 1009.48 1010.19 1010.87 1011.51 1012.13 1012.72 1013.29 1013.85 1014.38 1014.89 1015.36 1015.78 1016.14 1016.44 1016.68 1016.87 1017.01 1017.13 1017.23 1017.33 1017.42 1017.51 1017.59 1017.66 1017.71 1017.73 1017.72 1017.70 1017.66 1017.61 1017.56 1017.53 1017.50 1017.47 1017.44 1017.40 1017.32 1017.21 1017.06 1016.86 1016.62
1007.86 1008.65 1009.40 1010.13 1010.83 1011.51 1012.18 1012.83 1013.46 1014.07 1014.64 1015.16 1015.63 1016.03 1016.35 1016.61 1016.80 1016.94 1017.05 1017.14 1017.23 1017.32 1017.43 1017.54 1017.65 1017.74 1017.81 1017.85 1017.85 1017.82 1017.76 1017.68 1017.60 1017.52 1017.46 1017.41 1017.37 1017.32 1017.27 1017.19 1017.07 1016.92 1016.74
1007.87 1008.64 1009.38 1010.10 1010.81 1011.51 1012.20 1012.88 1013.55 1014.18 1014.77 1015.30 1015.76 1016.14 1016.44 1016.67 1016.83 1016.95 1017.04 1017.12 1017.20 1017.30 1017.42 1017.55 1017.68 1017.79 1017.87 1017.91 1017.91 1017.86 1017.78 1017.67 1017.56 1017.44 1017.35 1017.27 1017.21 1017.16 1017.11 1017.06 1016.98 1016.88 1016.74
1008.01 1008.74 1009.45 1010.15 1010.84 1011.53 1012.21 1012.89 1013.56 1014.20 1014.79 1015.31 1015.77 1016.14 1016.43 1016.65 1016.81 1016.92 1017.01 1017.10 1017.20 1017.31 1017.43 1017.57 1017.69 1017.80 1017.88 1017.90 1017.88 1017.81 1017.70 1017.56 1017.41 1017.27 1017.14 1017.03 1016.95 1016.89 1016.84 1016.80 1016.74 1016.67 1016.57
1008.26 1008.95 1009.61 1010.27 1010.92 1011.57 1012.23 1012.88 1013.53 1014.14 1014.72 1015.23 1015.68 1016.05 1016.35 1016.58 1016.75 1016.89 1017.00 1017.11 1017.21 1017.33 1017.45 1017.57 1017.67 1017.75 1017.79 1017.79 1017.73 1017.63 1017.48 1017.31 1017.13 1016.95 1016.79 1016.66 1016.55 1016.47 1016.42 1016.37 1016.33 1016.27 1016.20
1008.59 1009.23 1009.84 1010.44 1011.04 1011.64 1012.25 1012.86 1013.46 1014.04 1014.59 1015.09 1015.53 1015.91 1016.23 1016.48 1016.69 1016.85 1016.99 1017.11 1017.23 1017.33 1017.43 1017.51 1017.56 1017.59 1017.57 1017.51 1017.40 1017.25 1017.07 1016.87 1016.66 1016.46 1016.28 1016.13 1016.00 1015.91 1015.84 1015.78 1015.74 1015.69 1015.63
1008.94 1009.52 1010.08 1010.62 1011.17 1011.72 1012.27 1012.83 1013.38 1013.92 1014.43 1014.91 1015.35 1015.73 1016.07 1016.35 1016.59 1016.79 1016.95 1017.08 1017.18 1017.26 1017.31 1017.32 1017.30 1017.25 1017.15 1017.02 1016.85 1016.65 1016.44 1016.21 1015.99 1015.79 1015.60 1015.44 1015.31 1015.20 1015.12 1015.06 1015.01 1014.97 1014.92
1009.20 1009.74 1010.25 1010.75 1011.25 1011.75 1012.25 1012.76 1013.26 1013.76 1014.24 1014.69 1015.12 1015.51 1015.86 1016.17 1016.44 1016.66 1016.83 1016.95 1017.03 1017.05 1017.03 1016.97 1016.86 1016.70 1016.52 1016.31 1016.08 1015.84 1015.60 1015.37 1015.16 1014.96 1014.79 1014.65 1014.53 1014.43 1014.35 1014.29 1014.24 1014.20 1014.16
1009.32 1009.81 1010.29 1010.76 1011.23 1011.69 1012.16 1012.62 1013.08 1013.54 1013.99 1014.42 1014.83 1015.23 1015.58 1015.91 1016.18 1016.41 1016.57 1016.67 1016.71 1016.67 1016.57 1016.42 1016.22 1015.98 1015.71 1015.44 1015.17 1014.91 1014.67 1014.45 1014.27 1014.11 1013.97 1013.86 1013.77 1013.70 1013.63 1013.58 1013.54 1013.50 1013.47
1009.24 1009.71 1010.17 1010.62 1011.07 1011.51 1011.95 1012.39 1012.82 1013.24 1013.66 1014.07 1014.47 1014.85 1015.20 1015.52 1015.80 1016.01 1016.16 1016.23 1016.21 1016.12 1015.95 1015.72 1015.45 1015.15 1014.83 1014.53 1014.24 1013.99 1013.78 1013.61 1013.47 1013.37 1013.29 1013.22 1013.17 1013.12 1013.07 1013.03 1012.99 1012.96 1012.92
1008.97 1009.42 1009.87 1010.32 1010.77 1011.20 1011.63 1012.05 1012.46 1012.86 1013.25 1013.64 1014.01 1014.37 1014.71 1015.02 1015.27 1015.47 1015.59 1015.63 1015.58 1015.44 1015.23 1014.97 1014.66 1014.34 1014.02 1013.72 1013.47 1013.26 1013.11 1013.00 1012.93 1012.89 1012.86 1012.84 1012.82 1012.78 1012.75 1012.70 1012.65 1012.59 1012.54
1008.58 1009.02 1009.46 1009.91 1010.36 1010.80 1011.22 1011.63 1012.02 1012.40 1012.77 1013.12 1013.47 1013.80 1014.12 1014.40 1014.64 1014.81 1014.92 1014.94 1014.88 1014.73 1014.52 1014.26 1013.97 1013.67 1013.40 1013.16 1012.98 1012.85 1012.78 1012.74 1012.74 1012.76 1012.78 1012.78 1012.76 1012.72 1012.66 1012.58 1012.49 1012.39 1012.30
1008.16 1008.57 1009.01 1009.46 1009.91 1010.35 1010.76 1011.16 1011.53 1011.89 1012.23 1012.55 1012.87 1013.18 1013.47 1013.73 1013.95 1014.11 1014.21 1014.24 1014.19 1014.07 1013.90 1013.69 1013.47 1013.26 1013.07 1012.94 1012.85 1012.82 1012.84 1012.89 1012.95 1013.00 1013.03 1013.03 1012.98 1012.89 1012.76 1012.61 1012.44 1012.27 1012.10
1007.80 1008.19 1008.61 1009.05 1009.49 1009.91 1010.32 1010.70 1011.05 1011.37 1011.68 1011.98 1012.27 1012.55 1012.82 1013.06 1013.27 1013.44 1013.56 1013.61 1013.61 1013.55 1013.45 1013.34 1013.22 1013.12 1013.06 1013.05 1013.08 1013.15 1013.26 1013.37 1013.46 1013.53 1013.53 1013.48 1013.36 1013.17 1012.94 1012.67 1012.39 1012.10 1011.83
1007.59 1007.95 1008.34 1008.76 1009.17 1009.57 1009.94 1010.29 1010.61 1010.91 1011.19 1011.46 1011.72 1011.98 1012.23 1012.47 1012.69 1012.88 1013.02 1013.12 1013.18 1013.20 1013.21 1013.20 1013.21 1013.24 1013.31 1013.42 1013.56 1013.73 1013.90 1014.05 1014.15 1014.18 1014.13 1013.98 1013.75 1013.43 1013.06 1012.64 1012.22 1011.80 1011.41
1007.58 1007.90 1008.25 1008.61 1008.98 1009.34 1009.67 1009.98 1010.27 1010.53 1010.78 1011.03 1011.28 1011.53 1011.78 1012.02 1012.25 1012.47 1012.66 1012.81 1012.94 1013.05 1013.15 1013.25 1013.37 1013.52 1013.70 1013.92 1014.15 1014.37 1014.58 1014.73 1014.81 1014.78 1014.64 1014.38 1014.01 1013.54 1013.01 1012.44 1011.87 1011.32 1010.82
1007.75 1008.01 1008.31 1008.62 1008.94 1009.24 1009.52 1009.79 1010.04 1010.27 1010.50 1010.73 1010.97 1011.22 1011.48 1011.74 1012.00 1012.25 1012.48 1012.68 1012.88 1013.05 1013.23 1013.42 1013.62 1013.86 1014.11 1014.39 1014.67 1014.92 1015.13 1015.25 1015.28 1015.18 1014.93 1014.55 1014.05 1013.44 1012.77 1012.06 1011.36 1010.69 1010.09
1008.04 1008.25 1008.49 1008.74 1008.99 1009.24 1009.47 1009.70 1009.91 1010.13 1010.34 1010.57 1010.82 1011.08 1011.36 1011.65 1011.93 1012.21 1012.47 1012.72 1012.95 1013.17 1013.40 1013.63 1013.87 1014.14 1014.43 1014.72 1015.00 1015.25 1015.43 1015.51 1015.47 1015.29 1014.96 1014.48 1013.87 1013.16 1012.38 1011.57 1010.77 1010.02 1009.36
1008.38 1008.54 1008.72 1008.91 1009.11 1009.30 1009.49 1009.69 1009.88 1010.08 1010.30 1010.55 1010.81 1011.10 1011.41 1011.72 1012.04 1012.34 1012.63 1012.89 1013.14 1013.37 1013.60 1013.83 1014.07 1014.33 1014.60 1014.87 1015.12 1015.33 1015.46 1015.49 1015.39 1015.15 1014.76 1014.21 1013.54 1012.76 1011.93 1011.07 1010.23 1009.45 1008.75
Thickness
5799 5795 5792 5788 5786 5784 5781 5779 5778 5777 5776 5774 5773 5770 5769 5767 5766 5764 5762 5761 5759 5757 5757 5755 5753 5754 5752 5752 5750 5748 5744 5740 5730 5729 5730 5729 5727 5724 5721 5720 5717 5714 5711
5801 5796 5792 5789 5786 5783 5781 5779 5777 5775 5774 5773 5771 5769 5768 5766 5764 5761 5759 5758 5756 5755 5753 5752 5751 5751 5749 5748 5746 5744 5741 5739 5733 5726 5725 5724 5722 5721 5719 5717 5716 5713 5710
5801 5796 5791 5787 5784 5781 5780 5778 5776 5774 5772 5771 5769 5767 5766 5764 5762 5760 5758 5756 5755 5753 5751 5748 5748 5747 5745 5744 5743 5740 5739 5738 5734 5728 5723 5722 5720 5719 5716 5714 5712 5710 5708
5801 5795 5789 5786 5783 5780 5779 5776 5774 5772 5770 5768 5767 5765 5764 5762 5761 5759 5756 5754 5752 5751 5750 5747 5746 5744 5742 5741 5740 5737 5735 5732 5730 5726 5721 5718 5716 5715 5711 5707 5705 5705 5704
5799 5793 5789 5786 5783 5780 5777 5774 5772 5770 5768 5766 5764 5763 5762 5760 5758 5756 5754 5753 5750 5748 5747 5746 5744 5742 5740 5738 5737 5734 5731 5727 5724 5721 5717 5714 5710 5706 5705 5704 5700 5699 5698
5796 5792 5789 5785 5781 5778 5775 5772 5770 5768 5766 5764 5761 5760 5758 5758 5755 5753 5751 5750 5749 5746 5744 5743 5742 5740 5737 5735 5732 5730 5727 5723 5719 5715 5712 5708 5706 5704 5702 5700 5697 5693 5690
5794 5790 5787 5783 5778 5775 5774 5770 5767 5765 5763 5760 5759 5757 5755 5752 5751 5749 5748 5747 5746 5744 5742 5740 5739 5739 5735 5731 5729 5726 5723 5720 5717 5713 5709 5706 5703 5702 5699 5695 5692 5689 5687
5792 5788 5785 5781 5776 5773 5771 5767 5765 5763 5760 5758 5756 5754 5751 5749 5747 5745 5743 5743 5742 5740 5739 5737 5734 5732 5730 5727 5725 5722 5719 5717 5714 5711 5708 5705 5703 5700 5696 5693 5690 5687 5686
5789 5786 5783 5779 5774 5770 5767 5765 5763 5760 5757 5755 5753 5751 5748 5745 5743 5741 5739 5739 5737 5736 5735 5734 5731 5728 5725 5722 5720 5716 5714 5712 5711 5708 5705 5702 5699 5696 5692 5688 5684 5679 5676
5788 5785 5782 5778 5773 5769 5765 5762 5760 5758 5755 5753 5750 5748 5746 5742 5739 5737 5734 5734 5732 5731 5730 5729 5726 5723 5720 5717 5714 5711 5707 5706 5705 5703 5700 5697 5695 5692 5688 5683 5679 5674 5671
5787 5783 5779 5775 5771 5767 5763 5760 5757 5754 5751 5749 5746 5745 5743 5740 5736 5733 5730 5728 5727 5726 5725 5723 5721 5717 5714 5711 5708 5706 5703 5701 5700 5697 5695 5693 5690 5687 5684 5680 5677 5672 5667
5782 5778 5775 5772 5769 5766 5759 5755 5753 5750 5746 5744 5741 5739 5738 5736 5733 5729 5726 5723 5722 5721 5719 5718 5715 5711 5708 5705 5703 5701 5699 5696 5694 5692 5688 5686 5683 5681 5679 5676 5673 5669 5666
5774 5771 5769 5767 5764 5761 5755 5751 5747 5744 5741 5739 5737 5734 5732 5731 5729 5725 5721 5718 5716 5713 5713 5710 5707 5704 5702 5699 5697 5695 5692 5689 5687 5684 5681 5680 5679 5677 5675 5671 5668 5664 5661
5766 5763 5761 5758 5756 5753 5750 5748 5743 5740 5737 5735 5732 5730 5728 5725 5722 5719 5716 5712 5709 5706 5705 5703 5700 5698 5695 5694 5692 5688 5685 5683 5680 5678 5677 5676 5674 5671 5668 5664 5660 5657 5652
5758 5756 5754 5752 5749 5744 5741 5739 5737 5735 5733 5730 5728 5726 5722 5719 5716 5713 5710 5707 5705 5702 5698 5697 5694 5691 5688 5687 5686 5684 5681 5678 5674 5672 5670 5668 5666 5663 5660 5657 5653 5649 5644
5749 5748 5747 5745 5741 5738 5734 5730 5728 5728 5726 5724 5722 5719 5716 5713 5710 5707 5703 5701 5698 5695 5691 5690 5688 5686 5683 5682 5680 5677 5675 5672 5669 5666 5664 5661 5658 5654 5651 5649 5645 5641 5637
5742 5741 5740 5738 5735 5732 5728 5725 5721 5717 5717 5715 5714 5711 5708 5705 5702 5698 5695 5692 5690 5687 5684 5684 5682 5680 5678 5676 5674 5671 5669 5667 5664 5660 5657 5654 5650 5647 5644 5640 5637 5634 5630
5736 5734 5733 5732 5730 5727 5725 5722 5719 5715 5711 5709 5705 5702 5699 5696 5694 5690 5687 5683 5682 5681 5680 5679 5677 5675 5674 5671 5669 5667 5664 5661 5658 5654 5650 5647 5643 5639 5635 5632 5629 5626 5623
5727 5727 5727 5726 5724 5723 5721 5718 5716 5712 5709 5705 5702 5696 5692 5688 5685 5682 5678 5678 5678 5676 5676 5675 5673 5671 5669 5666 5664 5662 5659 5655 5651 5647 5643 5639 5636 5632 5628 5626 5623 5620 5616
5719 5719 5718 5718 5718 5716 5714 5712 5709 5706 5704 5700 5697 5693 5687 5683 5680 5677 5673 5673 5673 5672 5672 5670 5668 5667 5664 5661 5658 5655 5652 5648 5644 5640 5636 5632 5629 5625 5622 5619 5616 5613 5610
5712 5711 5709 5709 5710 5709 5707 5705 5703 5700 5697 5695 5692 5689 5683 5680 5678 5675 5673 5670 5669 5669 5666 5664 5662 5660 5657 5654 5651 5649 5645 5641 5637 5633 5629 5625 5622 5619 5616 5613 5610 5607 5604
5703 5703 5703 5702 5701 5701 5699 5698 5696 5694 5690 5687 5684 5681 5676 5675 5674 5673 5670 5668 5666 5664 5661 5658 5656 5652 5649 5646 5642 5639 5636 5631 5628 5624 5621 5618 5615 5612 5610 5607 5604 5601 5598
5692 5694 5694 5694 5693 5691 5690 5689 5687 5685 5683 5680 5678 5674 5671 5669 5669 5667 5665 5662 5659 5657 5654 5651 5648 5645 5641 5637 5635 5631 5626 5622 5619 5616 5612 5610 5607 5604 5602 5600 5597 5594 5591
5683 5684 5684 5684 5684 5683 5682 5681 5679 5678 5676 5673 5670 5667 5664 5662 5661 5660 5657 5654 5652 5650 5647 5644 5641 5638 5634 5630 5626 5622 5617 5613 5610 5607 5604 5602 5600 5597 5595 5592 5590 5587 5584
5674 5675 5675 5674 5673 5673 5672 5671 5670 5670 5668 5665 5662 5658 5656 5654 5653 5651 5648 5646 5644 5642 5639 5635 5632 5628 5625 5621 5617 5612 5608 5604 5601 5598 5596 5594 5592 5590 5587 5585 5582 5580 5577
5665 5665 5665 5665 5664 5663 5661 5661 5661 5660 5659 5656 5654 5651 5648 5646 5643 5641 5640 5637 5635 5633 5630 5627 5623 5619 5616 5612 5608 5603 5599 5596 5592 5589 5587 5586 5584 5581 5579 5577 5575 5572 5570